This is the latest recevied weather packets stored in our database for station/object YD2CLX-11. If no packets are shown the sender has not sent any weather packets the latest 10 day(s).
| Time | Temp. | Humidity | Pressure | Rain* | Wind** | Luminosity | Snow |
|---|---|---|---|---|---|---|---|
| 1788343036 | 31.11° C | 57% | 997.3 hPa | - | - | - | - |
| 1788342435 | 31.67° C | 56% | 997.2 hPa | - | - | - | - |
| 1788341833 | 31.67° C | 56% | 997.1 hPa | - | - | - | - |
| 1788341232 | 31.67° C | 56% | 997 hPa | - | - | - | - |
| 1788340630 | 31.67° C | 56% | 996.9 hPa | - | - | - | - |
| 1788340030 | 32.22° C | 56% | 996.7 hPa | - | - | - | - |
| 1788339428 | 32.78° C | 55% | 996.5 hPa | - | - | - | - |
| 1788338827 | 32.78° C | 54% | 996.5 hPa | - | - | - | - |
| 1788338226 | 33.33° C | 54% | 996.2 hPa | - | - | - | - |
| 1788337625 | 33.89° C | 53% | 996.2 hPa | - | - | - | - |
| 1788337023 | 33.89° C | 52% | 996.1 hPa | - | - | - | - |
| 1788336421 | 34.44° C | 49% | 996.1 hPa | - | - | - | - |
| 1788335821 | 35° C | 49% | 996 hPa | - | - | - | - |
| 1788335220 | 35° C | 48% | 996.1 hPa | - | - | - | - |
| 1788334619 | 35° C | 48% | 996.1 hPa | - | - | - | - |
| 1788334018 | 34.44° C | 48% | 996.2 hPa | - | - | - | - |
| 1788333417 | 34.44° C | 49% | 996.2 hPa | - | - | - | - |
| 1788332816 | 35.56° C | 45% | 996.1 hPa | - | - | - | - |
| 1788332215 | 35° C | 48% | 996.5 hPa | - | - | - | - |
| 1788331614 | 34.44° C | 48% | 996.5 hPa | - | - | - | - |
| 1788331013 | 36.67° C | 43% | 996.5 hPa | - | - | - | - |
| 1788330411 | 35° C | 44% | 996.7 hPa | - | - | - | - |
| 1788329810 | 34.44° C | 46% | 996.8 hPa | - | - | - | - |
| 1788329209 | 35.56° C | 44% | 997 hPa | - | - | - | - |
| 1788328608 | 36.11° C | 43% | 997 hPa | - | - | - | - |
* Rain since midnight (hover to see other rain measurements)
** Current wind speed in m/s (hover to see current wind gust speed)